Keps
Threads by month
- ----- 2023 -----
- December
- November
- October
- September
- August
- July
- June
- May
- April
- March
- February
- January
- ----- 2022 -----
- December
- November
- October
- September
- August
- July
- June
- May
- April
- March
- February
- January
- ----- 2021 -----
- December
- November
- October
- September
- August
- July
- June
- May
- April
- March
- February
- January
- ----- 2020 -----
- December
- November
- October
- September
- August
- July
- June
- May
- April
- March
- February
- January
- ----- 2019 -----
- December
- November
- October
- September
- August
- July
- June
- May
- April
- March
- February
- January
- ----- 2018 -----
- December
- November
- October
- September
- August
- July
- June
- May
- April
- March
- February
- January
- ----- 2017 -----
- December
- November
- October
- September
- August
- July
- June
- May
- April
- March
- February
- January
- ----- 2016 -----
- December
- November
- October
- September
- August
- July
- June
- May
- April
- March
- February
- January
- ----- 2015 -----
- December
- November
- October
- September
- August
- July
- June
- May
- April
- March
- February
- January
- ----- 2014 -----
- December
- November
- October
- September
- August
- July
- June
- May
- April
- March
- February
- January
- ----- 2013 -----
- December
- November
- October
- September
- August
- July
- June
- May
- April
- March
- February
- January
- ----- 2012 -----
- December
- November
- October
- September
- August
- July
- June
- May
- April
- March
- February
- January
- ----- 2011 -----
- December
- November
- October
- September
- August
- July
- June
- May
- April
- March
- February
- January
- ----- 2010 -----
- December
- November
- October
- September
- August
- July
- June
- May
- April
- March
- February
- January
- ----- 2009 -----
- December
- November
- October
- September
- August
- July
- June
- May
- April
- March
- February
- January
- ----- 2008 -----
- December
- November
- October
- September
- August
- July
- June
- May
- April
- March
- February
- January
- ----- 2007 -----
- December
- November
- October
- September
- August
- July
- June
- May
- April
- March
- February
- January
- ----- 2006 -----
- December
- November
- October
- September
July 2019
- 1 participants
- 7 discussions
The following Amateur Radio satellites have decayed from orbit and have been
removed from this week's TLE distribution.
NJUST-1 - NORAD CAT ID 42722 - Decayed 07/20/2019 (per Space-Track)
AOXIANG-1 - NORAD CAT ID 42735 - Decayed 06/26/2019 (per Space-Track)
The following Amateur Radio satellite has been added to this week's TLE
distribution.
CAS-7B - TEMPORARY CAT ID 99999 (This CAT ID will be changed to a permanent
ID later.)
The initial TLE supplied by Alan Kung, BA1DU on July 25, 2019 on AMSAT-BB.
CAS-7B was launched today (7/25/2019) at 05:00 GMT on a Hyperbola-1 from
Jiuguan (China).
Thanks to AMSAT-UK for info. See https://amsat-uk.org for details. CAS-7B
has a FM transponder.
1
0
SB KEPS @ AMSAT $ORB19206.N
2Line Orbital Elements 19206.AMSAT
HR AMSAT ORBITAL ELEMENTS FOR AMATEUR SATELLITES IN NASA FORMAT
FROM WA5QGD FORT WORTH,TX July 25, 2019
BID: ORB19206.N
DECODE 2-LINE ELSETS WITH THE FOLLOWING KEY:
1 AAAAAU 00 0 0 BBBBB.BBBBBBBB .CCCCCCCC 00000-0 00000-0 0 DDDZ
2 AAAAA EEE.EEEE FFF.FFFF GGGGGGG HHH.HHHH III.IIII JJ.JJJJJJJJKKKKKZ
KEY: A-CATALOGNUM B-EPOCHTIME C-DECAY D-ELSETNUM E-INCLINATION F-RAAN
G-ECCENTRICITY H-ARGPERIGEE I-MNANOM J-MNMOTION K-ORBITNUM Z-CHECKSUM
TO ALL RADIO AMATEURS BT
AO-07
1 07530U 74089B 19206.17680656 -.00000020 00000-0 15519-3 0 9997
2 07530 101.7461 173.4676 0011729 277.7357 151.9030 12.53639070 45092
UO-11
1 14781U 84021B 19206.67269836 .00000011 00000-0 75134-5 0 9998
2 14781 97.6090 229.6387 0008168 187.9580 172.1506 14.83096893904244
LO-19
1 20442U 90005G 19206.74731478 -.00000015 00000-0 10683-4 0 9994
2 20442 98.6497 148.6884 0012636 44.3165 315.9028 14.32929404541687
HUBBLE
1 20580U 90037B 19205.79893196 .00000315 00000-0 82105-5 0 9993
2 20580 28.4703 333.1788 0002735 149.6577 345.3812 15.09247229406355
MET-2/21
1 22782U 93055A 19205.90032958 .00000079 00000-0 57670-4 0 9991
2 22782 82.5504 134.3437 0023733 77.2443 345.9269 13.83821056307877
AO-27
1 22825U 93061C 19206.51224652 -.00000010 00000-0 14087-4 0 9999
2 22825 98.9047 195.9924 0007335 249.5289 110.5106 14.30062892347210
IO-26
1 22826U 93061D 19205.87578568 -.00000005 00000-0 15836-4 0 9993
2 22826 98.8987 195.3281 0007925 239.0488 120.9916 14.30396575347327
FO-29
1 24278U 96046B 19206.37489443 .00000013 00000-0 46344-4 0 9997
2 24278 98.5423 354.8151 0351014 144.7682 217.7217 13.53092772132764
NOAA-15
1 25338U 98030A 19206.53629299 .00000044 00000-0 37056-4 0 9997
2 25338 98.7451 227.7339 0011338 131.9940 228.2207 14.25923107102508
GO-32
1 25397U 98043D 19205.88444242 -.00000020 00000-0 10533-4 0 9992
2 25397 098.6896 145.5927 0000548 357.5274 002.5902 14.23668073092804
ISS
1 25544U 98067A 19207.04085751 .00000393 00000-0 14498-4 0 9994
2 25544 51.6430 168.5013 0006550 179.2186 300.2143 15.51001786181282
NO-44
1 26931U 01043C 19206.34547153 -.00000071 00000-0 47678-5 0 9995
2 26931 67.0508 269.0966 0007230 276.2234 83.8043 14.30547597930211
SO-50
1 27607U 02058C 19206.55163423 -.00000058 00000-0 12839-4 0 9995
2 27607 64.5556 296.9021 0080045 249.4314 109.8188 14.75560368892478
CO-55
1 27844U 03031E 19206.58887557 .00000026 00000-0 31525-4 0 9991
2 27844 98.6835 214.2499 0008617 286.9058 73.1174 14.22186532833536
CO-57
1 27848U 03031J 19206.59152362 .00000019 00000-0 28479-4 0 9991
2 27848 98.6912 214.7606 0008645 299.9826 60.0493 14.21780800833388
RS-22
1 27939U 03042A 19206.68060977 -.00000013 00000-0 63251-5 0 9997
2 27939 98.0458 341.7849 0012024 314.3313 45.6905 14.66791490845967
NOAA-18
1 28654U 05018A 19206.40155162 .00000052 00000-0 52802-4 0 9999
2 28654 99.0930 253.9163 0015299 76.2655 284.0218 14.12440003730704
CO-58
1 28895U 05043F 19206.08215189 .00000090 00000-0 26091-4 0 9997
2 28895 97.9641 347.5756 0015689 233.8084 126.1669 14.63677097732805
Falconsat-3
1 30776U 07006E 19206.47108554 .00001259 00000-0 36286-4 0 9994
2 30776 35.4336 215.9283 0001772 85.3569 274.7360 15.36292758686346
CO-65
1 32785U 08021C 19206.19228732 .00000116 00000-0 18132-4 0 9995
2 32785 97.5501 204.1862 0014129 136.7166 223.5164 14.88323452609114
AAUSAT2
1 32788U 08021F 19206.60218337 .00000354 00000-0 37532-4 0 9993
2 32788 97.4961 220.6997 0013504 78.0796 282.1938 14.94754185610436
DO-64
1 32789U 08021G 19206.13786280 .00000869 00000-0 61987-4 0 9991
2 32789 97.4620 254.6992 0012197 9.3269 350.8183 15.07015178612456
CO-66
1 32791U 08021J 19206.75337077 .00000267 00000-0 32447-4 0 9999
2 32791 97.5279 210.7318 0014889 111.8962 248.3842 14.90839298609631
RS-30
1 32953U 08025A 19206.74768357 .00000021 00000-0 75656-4 0 9998
2 32953 82.5028 121.7246 0020396 49.0903 311.1941 12.43090724506910
PRISM
1 33493U 09002B 19206.36640635 -.00000211 00000-0 -12886-4 0 9999
2 33493 98.1210 128.7128 0016433 63.1265 297.1632 14.96681693570638
NOAA-19
1 33591U 09005A 19206.59801294 .00000058 00000-0 56870-4 0 9994
2 33591 99.1810 198.6168 0012911 275.7370 84.2329 14.12367035539114
TISAT-1
1 36799U 10035E 19206.38870018 .00000215 00000-0 27823-4 0 9990
2 36799 98.1602 359.7668 0011492 331.3873 28.6712 14.91122268490231
JUGNU
1 37839U 11058B 19206.12846633 .00000286 00000-0 10956-4 0 9997
2 37839 19.9614 113.8180 0018866 9.0926 134.1970 14.12654513402417
SRMSAT
1 37841U 11058D 19206.30245427 .00000281 00000-0 93343-5 0 9991
2 37841 19.9709 170.2961 0011712 238.2306 274.3000 14.10635404401876
AO-71
1 37854U 11061E 19206.35592432 .00000631 00000-0 40342-4 0 9994
2 37854 101.6983 123.4425 0160568 317.0319 41.8443 15.06490662422515
HRBE
1 37855U 11061F 19205.68803800 .00000852 00000-0 50607-4 0 9994
2 37855 101.7113 119.7612 0173397 330.1911 28.9509 15.05495775422198
ALMASAT-1
1 38078U 12006B 19206.30862441 .00017915 41128-5 99913-4 0 9990
2 38078 69.4258 161.4633 0159029 205.9056 310.7096 15.64527413403213
HORYU-2
1 38340U 12025D 19206.73209816 .00000090 00000-0 21160-4 0 9995
2 38340 98.3265 246.4295 0011678 13.2454 346.9058 14.75730978386628
RS-40
1 38735U 12041C 19206.74617888 .00000034 00000-0 17343-3 0 9999
2 38735 82.4733 204.9794 0016949 151.0804 209.1218 12.42579539317155
BEESAT-3
1 39135U 13015F 19206.38484215 .00000333 00000-0 26401-4 0 9990
2 39135 64.8696 280.3703 0026277 314.1182 45.7782 15.17514042345813
BEESAT-2
1 39136U 13015G 19206.23789955 .00000165 00000-0 18354-4 0 9995
2 39136 64.8703 284.7746 0021005 299.6636 60.2398 15.16940526345716
ZACUBE-1
1 39417U 13066B 19205.98349668 .00000111 00000-0 20464-4 0 9993
2 39417 97.5618 217.4452 0057331 275.2036 84.2637 14.81127424306419
TRITON-1
1 39427U 13066M 19206.87996598 .00000170 00000-0 34808-4 0 9995
2 39427 97.6786 181.9639 0115037 46.9443 314.1325 14.67854701303798
GOMX-1
1 39430U 13066Q 19206.85602597 .00000082 00000-0 23637-4 0 9990
2 39430 97.7497 160.9671 0151966 136.6820 224.6451 14.59263008302027
LO-74
1 39440U 13066AA 19206.56558137 .00000110 00000-0 22463-4 0 9997
2 39440 97.6029 202.8266 0079383 326.1973 33.4191 14.75865740305413
AO-73
1 39444U 13066AE 19205.62641621 .00000152 00000-0 25164-4 0 9995
2 39444 97.5597 219.0889 0056433 269.9584 89.5163 14.81948211305255
SPROUT
1 39770U 14029E 19206.76718148 .00000272 00000-0 36207-4 0 9995
2 39770 97.8855 309.8214 0008780 331.9171 28.1563 14.87368299280344
DUCHIFAT-1
1 40021U 14033M 19206.73219466 .00000289 00000-0 35329-4 0 9999
2 40021 97.9232 131.4487 0011526 291.5647 68.4342 14.90647255277060
NANOSATCBR1
1 40024U 14033Q 19206.71136847 .00000147 00000-0 21263-4 0 9996
2 40024 97.9127 128.7564 0010867 295.7140 64.2955 14.89859486276952
EO-79
1 40025U 14033R 19206.19126775 .00000172 00000-0 24279-4 0 9996
2 40025 97.9049 125.8164 0011263 303.9661 56.0485 14.88956717276750
DTUSAT-2
1 40030U 14033W 19206.33174960 .00000120 00000-0 18904-4 0 9998
2 40030 97.8964 124.0557 0010620 298.8419 61.1731 14.88548020276707
